Location: Staunton
(38.1490°N, 79.0720°W)
Time: 01:51:35
(UTC-04:00)

ISS - Pass Details

Date: 10 May 2021
Orbit: 417 x 422 km, 51.6° (Epoch: 18 May)

Event Time Altitude Azimuth Distance (km) Brightness Sun altitude
Rises 04:37:05 0° 319° (NW) 2,369 0.1 -16.4°
Reaches altitude 10° 04:40:17 10° 352° (N) 1,504 -0.5 -15.9°
Maximum altitude 04:41:41 12° 17° (NNE) 1,383 -0.3 -15.7°
Drops below altitude 10° 04:43:06 10° 41° (NE) 1,504 0.4 -15.5°
Sets 04:46:18 0° 74° (ENE) 2,367 1.4 -15.0°
